Year,Month,Day,Hour,Minute,Value (Times are PST for temperature in C)
2012,10,04,00,00,4.30
2012,10,04,00,01,4.30
2012,10,04,00,02,4.30
2012,10,04,00,03,4.30
2012,10,04,00,04,4.30
2012,10,04,00,05,4.30
2012,10,04,00,06,4.30
2012,10,04,00,07,4.30
2012,10,04,00,08,4.30
2012,10,04,00,09,4.30
2012,10,04,00,10,4.40
2012,10,04,00,11,4.30
2012,10,04,00,12,4.30
2012,10,04,00,13,4.30
2012,10,04,00,14,4.30
2012,10,04,00,15,4.30
2012,10,04,00,16,4.30
2012,10,04,00,17,4.30
2012,10,04,00,18,4.30
2012,10,04,00,19,4.30
2012,10,04,00,20,4.30
2012,10,04,00,21,4.30
2012,10,04,00,22,4.30
2012,10,04,00,23,4.20
2012,10,04,00,24,4.20
2012,10,04,00,25,4.20
2012,10,04,00,26,4.20
2012,10,04,00,27,4.20
2012,10,04,00,28,4.20
2012,10,04,00,29,4.10
2012,10,04,00,30,4.10
2012,10,04,00,31,4.10
2012,10,04,00,32,4.00
2012,10,04,00,33,4.00
2012,10,04,00,34,3.90
2012,10,04,00,35,3.90
2012,10,04,00,36,3.80
2012,10,04,00,37,3.80
2012,10,04,00,38,3.80
2012,10,04,00,39,3.70
2012,10,04,00,40,3.70
2012,10,04,00,41,3.70
2012,10,04,00,42,3.70
2012,10,04,00,43,3.70
2012,10,04,00,44,3.70
2012,10,04,00,45,3.70
2012,10,04,00,46,3.60
2012,10,04,00,47,3.60
2012,10,04,00,48,3.60
2012,10,04,00,49,3.60
2012,10,04,00,50,3.60
2012,10,04,00,51,3.60
2012,10,04,00,52,3.60
2012,10,04,00,53,3.60
2012,10,04,00,54,3.60
2012,10,04,00,55,3.60
2012,10,04,00,56,3.60
2012,10,04,00,57,3.50
2012,10,04,00,58,3.50
2012,10,04,00,59,3.50
2012,10,04,01,00,3.50
2012,10,04,01,01,3.50
2012,10,04,01,02,3.50
2012,10,04,01,03,3.50
2012,10,04,01,04,3.40
2012,10,04,01,05,3.40
2012,10,04,01,06,3.40
2012,10,04,01,07,3.40
2012,10,04,01,08,3.30
2012,10,04,01,09,3.30
2012,10,04,01,10,3.30
2012,10,04,01,11,3.30
2012,10,04,01,12,3.30
2012,10,04,01,13,3.30
2012,10,04,01,14,3.30
2012,10,04,01,15,3.30
2012,10,04,01,16,3.30
2012,10,04,01,17,3.20
2012,10,04,01,18,3.20
2012,10,04,01,19,3.20
2012,10,04,01,20,3.20
2012,10,04,01,21,3.20
2012,10,04,01,22,3.20
2012,10,04,01,23,3.20
2012,10,04,01,24,3.20
2012,10,04,01,25,3.20
2012,10,04,01,26,3.20
2012,10,04,01,27,3.20
2012,10,04,01,28,3.20
2012,10,04,01,29,3.10
2012,10,04,01,30,3.10
2012,10,04,01,31,3.10
2012,10,04,01,32,3.10
2012,10,04,01,33,3.10
2012,10,04,01,34,3.10
2012,10,04,01,35,3.10
2012,10,04,01,36,3.00
2012,10,04,01,37,3.00
2012,10,04,01,38,3.00
2012,10,04,01,39,3.00
2012,10,04,01,40,3.00
2012,10,04,01,41,3.00
2012,10,04,01,42,3.00
2012,10,04,01,43,2.90
2012,10,04,01,44,2.90
2012,10,04,01,45,2.90
2012,10,04,01,46,2.90
2012,10,04,01,47,2.90
2012,10,04,01,48,2.90
2012,10,04,01,49,2.90
2012,10,04,01,50,2.90
2012,10,04,01,51,2.80
2012,10,04,01,52,2.80
2012,10,04,01,53,2.80
2012,10,04,01,54,2.80
2012,10,04,01,55,2.80
2012,10,04,01,56,2.80
2012,10,04,01,57,2.80
2012,10,04,01,58,2.80
2012,10,04,01,59,2.80
2012,10,04,02,00,2.80
2012,10,04,02,01,2.80
2012,10,04,02,02,2.80
2012,10,04,02,03,2.80
2012,10,04,02,04,2.80
2012,10,04,02,05,2.70
2012,10,04,02,06,2.70
2012,10,04,02,07,2.70
2012,10,04,02,08,2.70
2012,10,04,02,09,2.70
2012,10,04,02,10,2.70
2012,10,04,02,11,2.70
2012,10,04,02,12,2.70
2012,10,04,02,13,2.70
2012,10,04,02,14,2.70
2012,10,04,02,15,2.70
2012,10,04,02,16,2.60
2012,10,04,02,17,2.60
2012,10,04,02,18,2.60
2012,10,04,02,19,2.60
2012,10,04,02,20,2.60
2012,10,04,02,21,2.60
2012,10,04,02,22,2.60
2012,10,04,02,23,2.50
2012,10,04,02,24,2.50
2012,10,04,02,25,2.50
2012,10,04,02,26,2.50
2012,10,04,02,27,2.50
2012,10,04,02,28,2.50
2012,10,04,02,29,2.50
2012,10,04,02,30,2.50
2012,10,04,02,31,2.50
2012,10,04,02,32,2.50
2012,10,04,02,33,2.40
2012,10,04,02,34,2.40
2012,10,04,02,35,2.40
2012,10,04,02,36,2.40
2012,10,04,02,37,2.40
2012,10,04,02,38,2.40
2012,10,04,02,39,2.40
2012,10,04,02,40,2.40
2012,10,04,02,41,2.30
2012,10,04,02,42,2.30
2012,10,04,02,43,2.30
2012,10,04,02,44,2.30
2012,10,04,02,45,2.30
2012,10,04,02,46,2.30
2012,10,04,02,47,2.30
2012,10,04,02,48,2.30
2012,10,04,02,49,2.30
2012,10,04,02,50,2.30
2012,10,04,02,51,2.30
2012,10,04,02,52,2.30
2012,10,04,02,53,2.20
2012,10,04,02,54,2.20
2012,10,04,02,55,2.20
2012,10,04,02,56,2.20
2012,10,04,02,57,2.20
2012,10,04,02,58,2.20
2012,10,04,02,59,2.20
2012,10,04,03,00,2.20
2012,10,04,03,01,2.20
2012,10,04,03,02,2.20
2012,10,04,03,03,2.10
2012,10,04,03,04,2.10
2012,10,04,03,05,2.10
2012,10,04,03,06,2.10
2012,10,04,03,07,2.10
2012,10,04,03,08,2.10
2012,10,04,03,09,2.00
2012,10,04,03,10,2.00
2012,10,04,03,11,2.00
2012,10,04,03,12,2.00
2012,10,04,03,13,2.00
2012,10,04,03,14,2.00
2012,10,04,03,15,1.90
2012,10,04,03,16,1.90
2012,10,04,03,17,1.90
2012,10,04,03,18,1.90
2012,10,04,03,19,1.90
2012,10,04,03,20,1.90
2012,10,04,03,21,1.90
2012,10,04,03,22,1.90
2012,10,04,03,23,1.90
2012,10,04,03,24,1.80
2012,10,04,03,25,1.80
2012,10,04,03,26,1.80
2012,10,04,03,27,1.80
2012,10,04,03,28,1.80
2012,10,04,03,29,1.80
2012,10,04,03,30,1.80
2012,10,04,03,31,1.80
2012,10,04,03,32,1.80
2012,10,04,03,33,1.80
2012,10,04,03,34,1.80
2012,10,04,03,35,1.80
2012,10,04,03,36,1.70
2012,10,04,03,37,1.70
2012,10,04,03,38,1.70
2012,10,04,03,39,1.70
2012,10,04,03,40,1.70
2012,10,04,03,41,1.70
2012,10,04,03,42,1.70
2012,10,04,03,43,1.70
2012,10,04,03,44,1.70
2012,10,04,03,45,1.70
2012,10,04,03,46,1.70
2012,10,04,03,47,1.70
2012,10,04,03,48,1.70
2012,10,04,03,49,1.60
2012,10,04,03,50,1.60
2012,10,04,03,51,1.60
2012,10,04,03,52,1.60
2012,10,04,03,53,1.60
2012,10,04,03,54,1.60
2012,10,04,03,55,1.60
2012,10,04,03,56,1.60
2012,10,04,03,57,1.60
2012,10,04,03,58,1.60
2012,10,04,03,59,1.60
2012,10,04,04,00,1.60
2012,10,04,04,01,1.50
2012,10,04,04,02,1.50
2012,10,04,04,03,1.50
2012,10,04,04,04,1.50
2012,10,04,04,05,1.50
2012,10,04,04,06,1.40
2012,10,04,04,07,1.40
2012,10,04,04,08,1.40
2012,10,04,04,09,1.40
2012,10,04,04,10,1.40
2012,10,04,04,11,1.50
2012,10,04,04,12,1.50
2012,10,04,04,13,1.40
2012,10,04,04,14,1.40
2012,10,04,04,15,1.40
2012,10,04,04,16,1.40
2012,10,04,04,17,1.40
2012,10,04,04,18,1.40
2012,10,04,04,19,1.40
2012,10,04,04,20,1.40
2012,10,04,04,21,1.40
2012,10,04,04,22,1.40
2012,10,04,04,23,1.40
2012,10,04,04,24,1.30
2012,10,04,04,25,1.30
2012,10,04,04,26,1.30
2012,10,04,04,27,1.30
2012,10,04,04,28,1.30
2012,10,04,04,29,1.30
2012,10,04,04,30,1.30
2012,10,04,04,31,1.30
2012,10,04,04,32,1.30
2012,10,04,04,33,1.30
2012,10,04,04,34,1.30
2012,10,04,04,35,1.30
2012,10,04,04,36,1.30
2012,10,04,04,37,1.30
2012,10,04,04,38,1.30
2012,10,04,04,39,1.20
2012,10,04,04,40,1.20
2012,10,04,04,41,1.20
2012,10,04,04,42,1.20
2012,10,04,04,43,1.20
2012,10,04,04,44,1.20
2012,10,04,04,45,1.20
2012,10,04,04,46,1.20
2012,10,04,04,47,1.20
2012,10,04,04,48,1.20
2012,10,04,04,49,1.20
2012,10,04,04,50,1.10
2012,10,04,04,51,1.10
2012,10,04,04,52,1.10
2012,10,04,04,53,1.10
2012,10,04,04,54,1.10
2012,10,04,04,55,1.10
2012,10,04,04,56,1.10
2012,10,04,04,57,1.10
2012,10,04,04,58,1.10
2012,10,04,04,59,1.00
2012,10,04,05,00,1.00
2012,10,04,05,01,1.00
2012,10,04,05,02,1.00
2012,10,04,05,03,1.00
2012,10,04,05,04,1.00
2012,10,04,05,05,1.00
2012,10,04,05,06,1.00
2012,10,04,05,07,1.00
2012,10,04,05,08,1.00
2012,10,04,05,09,1.00
2012,10,04,05,10,1.00
2012,10,04,05,11,0.90
2012,10,04,05,12,0.90
2012,10,04,05,13,0.90
2012,10,04,05,14,0.90
2012,10,04,05,15,0.90
2012,10,04,05,16,0.90
2012,10,04,05,17,0.90
2012,10,04,05,18,0.80
2012,10,04,05,19,0.80
2012,10,04,05,20,0.80
2012,10,04,05,21,0.80
2012,10,04,05,22,0.80
2012,10,04,05,23,0.80
2012,10,04,05,24,0.80
2012,10,04,05,25,0.80
2012,10,04,05,26,0.80
2012,10,04,05,27,0.80
2012,10,04,05,28,0.80
2012,10,04,05,29,0.80
2012,10,04,05,30,0.80
2012,10,04,05,31,0.80
2012,10,04,05,32,0.80
2012,10,04,05,33,0.70
2012,10,04,05,34,0.70
2012,10,04,05,35,0.70
2012,10,04,05,36,0.70
2012,10,04,05,37,0.70
2012,10,04,05,38,0.70
2012,10,04,05,39,0.70
2012,10,04,05,40,0.70
2012,10,04,05,41,0.70
2012,10,04,05,42,0.70
2012,10,04,05,43,0.70
2012,10,04,05,44,0.70
2012,10,04,05,45,0.70
2012,10,04,05,46,0.70
2012,10,04,05,47,0.70
2012,10,04,05,48,0.70
2012,10,04,05,49,0.70
2012,10,04,05,50,0.70
2012,10,04,05,51,0.70
2012,10,04,05,52,0.70
2012,10,04,05,53,0.70
2012,10,04,05,54,0.70
2012,10,04,05,55,0.60
2012,10,04,05,56,0.60
2012,10,04,05,57,0.60
2012,10,04,05,58,0.60
2012,10,04,05,59,0.60
2012,10,04,06,00,0.60
2012,10,04,06,01,0.60
2012,10,04,06,02,0.60
2012,10,04,06,03,0.60
2012,10,04,06,04,0.60
2012,10,04,06,05,0.60
2012,10,04,06,06,0.60
2012,10,04,06,07,0.60
2012,10,04,06,08,0.60
2012,10,04,06,09,0.60
2012,10,04,06,10,0.60
2012,10,04,06,11,0.50
2012,10,04,06,12,0.50
2012,10,04,06,13,0.50
2012,10,04,06,14,0.50
2012,10,04,06,15,0.50
2012,10,04,06,16,0.40
2012,10,04,06,17,0.40
2012,10,04,06,18,0.40
2012,10,04,06,19,0.40
2012,10,04,06,20,0.40
2012,10,04,06,21,0.40
2012,10,04,06,22,0.40
2012,10,04,06,23,0.40
2012,10,04,06,24,0.30
2012,10,04,06,25,0.30
2012,10,04,06,26,0.30
2012,10,04,06,27,0.30
2012,10,04,06,28,0.30
2012,10,04,06,29,0.30
2012,10,04,06,30,0.30
2012,10,04,06,31,0.30
2012,10,04,06,32,0.30
2012,10,04,06,33,0.30
2012,10,04,06,34,0.30
2012,10,04,06,35,0.30
2012,10,04,06,36,0.30
2012,10,04,06,37,0.30
2012,10,04,06,38,0.30
2012,10,04,06,39,0.30
2012,10,04,06,40,0.30
2012,10,04,06,41,0.30
2012,10,04,06,42,0.30
2012,10,04,06,43,0.30
2012,10,04,06,44,0.30
2012,10,04,06,45,0.30
2012,10,04,06,46,0.30
2012,10,04,06,47,0.30
2012,10,04,06,48,0.30
2012,10,04,06,49,0.30
2012,10,04,06,50,0.20
2012,10,04,06,51,0.30
2012,10,04,06,52,0.30
2012,10,04,06,53,0.20
2012,10,04,06,54,0.20
2012,10,04,06,55,0.20
2012,10,04,06,56,0.20
2012,10,04,06,57,0.20
2012,10,04,06,58,0.20
2012,10,04,06,59,0.30
2012,10,04,07,00,0.30
2012,10,04,07,01,0.30
2012,10,04,07,02,0.20
2012,10,04,07,03,0.20
2012,10,04,07,04,0.20
2012,10,04,07,05,0.20
2012,10,04,07,06,0.20
2012,10,04,07,07,0.20
2012,10,04,07,08,0.20
2012,10,04,07,09,0.20
2012,10,04,07,10,0.20
2012,10,04,07,11,0.10
2012,10,04,07,12,0.10
2012,10,04,07,13,0.10
2012,10,04,07,14,0.10
2012,10,04,07,15,0.10
2012,10,04,07,16,0.10
2012,10,04,07,17,0.10
2012,10,04,07,18,0.10
2012,10,04,07,19,0.10
2012,10,04,07,20,0.10
2012,10,04,07,21,0.00
2012,10,04,07,22,0.00
2012,10,04,07,23,0.00
2012,10,04,07,24,0.00
2012,10,04,07,25,0.00
2012,10,04,07,26,0.00
2012,10,04,07,27,0.00
2012,10,04,07,28,0.00
2012,10,04,07,29,0.00
2012,10,04,07,30,0.00
2012,10,04,07,31,0.00
2012,10,04,07,32,0.00
2012,10,04,07,33,0.00
2012,10,04,07,34,0.00
2012,10,04,07,35,0.00
2012,10,04,07,36,0.00
2012,10,04,07,37,0.00
2012,10,04,07,38,0.00
2012,10,04,07,39,0.00
2012,10,04,07,40,0.00
2012,10,04,07,41,0.00
2012,10,04,07,42,0.00
2012,10,04,07,43,0.00
2012,10,04,07,44,0.00
2012,10,04,07,45,0.00
2012,10,04,07,46,0.00
2012,10,04,07,47,0.00
2012,10,04,07,48,-0.10
2012,10,04,07,49,-0.10
2012,10,04,07,50,-0.10
2012,10,04,07,51,-0.10
2012,10,04,07,52,-0.10
2012,10,04,07,53,-0.10
2012,10,04,07,54,-0.10
2012,10,04,07,55,-0.10
2012,10,04,07,56,-0.10
2012,10,04,07,57,-0.10
2012,10,04,07,58,-0.10
2012,10,04,07,59,-0.10
2012,10,04,08,00,-0.10
2012,10,04,08,01,-0.10
2012,10,04,08,02,-0.10
2012,10,04,08,03,-0.10
2012,10,04,08,04,0.00
2012,10,04,08,05,0.00
2012,10,04,08,06,0.00
2012,10,04,08,07,0.00
2012,10,04,08,08,0.00
2012,10,04,08,09,0.00
2012,10,04,08,10,0.00
2012,10,04,08,11,0.00
2012,10,04,08,12,0.00
2012,10,04,08,13,-0.10
2012,10,04,08,14,-0.10
2012,10,04,08,15,-0.10
2012,10,04,08,16,-0.10
2012,10,04,08,17,-0.10
2012,10,04,08,18,-0.10
2012,10,04,08,19,-0.10
2012,10,04,08,20,-0.10
2012,10,04,08,21,-0.10
2012,10,04,08,22,-0.10
2012,10,04,08,23,0.00
2012,10,04,08,24,0.00
2012,10,04,08,25,0.00
2012,10,04,08,26,0.00
2012,10,04,08,27,0.00
2012,10,04,08,28,0.00
2012,10,04,08,29,0.00
2012,10,04,08,30,0.00
2012,10,04,08,31,0.00
2012,10,04,08,32,0.00
2012,10,04,08,33,0.00
2012,10,04,08,34,0.00
2012,10,04,08,35,0.10
2012,10,04,08,36,0.10
2012,10,04,08,37,0.10
2012,10,04,08,38,0.10
2012,10,04,08,39,0.10
2012,10,04,08,40,0.10
2012,10,04,08,41,0.10
2012,10,04,08,42,0.10
2012,10,04,08,43,0.10
2012,10,04,08,44,0.10
2012,10,04,08,45,0.20
2012,10,04,08,46,0.20
2012,10,04,08,47,0.20
2012,10,04,08,48,0.20
2012,10,04,08,49,0.20
2012,10,04,08,50,0.20
2012,10,04,08,51,0.30
2012,10,04,08,52,0.30
2012,10,04,08,53,0.40
2012,10,04,08,54,0.40
2012,10,04,08,55,0.50
2012,10,04,08,56,0.50
2012,10,04,08,57,0.60
2012,10,04,08,58,0.70
2012,10,04,08,59,0.80
2012,10,04,09,00,0.80
2012,10,04,09,01,0.90
2012,10,04,09,02,1.00
2012,10,04,09,03,1.10
2012,10,04,09,04,1.20
2012,10,04,09,05,1.30
2012,10,04,09,06,1.50
2012,10,04,09,07,1.60
2012,10,04,09,08,1.80
2012,10,04,09,09,1.90
2012,10,04,09,10,2.10
2012,10,04,09,11,2.20
2012,10,04,09,12,2.30
2012,10,04,09,13,2.40
2012,10,04,09,14,2.50
2012,10,04,09,15,2.60
2012,10,04,09,16,2.70
2012,10,04,09,17,2.70
2012,10,04,09,18,2.80
2012,10,04,09,19,2.80
2012,10,04,09,20,2.90
2012,10,04,09,21,2.90
2012,10,04,09,22,3.00
2012,10,04,09,23,3.10
2012,10,04,09,24,3.10
2012,10,04,09,25,3.20
2012,10,04,09,26,3.30
2012,10,04,09,27,3.40
2012,10,04,09,28,3.50
2012,10,04,09,29,3.60
2012,10,04,09,30,3.70
2012,10,04,09,31,3.80
2012,10,04,09,32,3.90
2012,10,04,09,33,4.00
2012,10,04,09,34,4.10
2012,10,04,09,35,4.20
2012,10,04,09,36,4.30
2012,10,04,09,37,4.40
2012,10,04,09,38,4.50
2012,10,04,09,39,4.60
2012,10,04,09,40,4.70
2012,10,04,09,41,4.80
2012,10,04,09,42,4.80
2012,10,04,09,43,4.90
2012,10,04,09,44,5.00
2012,10,04,09,45,5.10
2012,10,04,09,46,5.20
2012,10,04,09,47,5.30
2012,10,04,09,48,5.40
2012,10,04,09,49,5.50
2012,10,04,09,50,5.50
2012,10,04,09,51,5.60
2012,10,04,09,52,5.70
2012,10,04,09,53,5.80
2012,10,04,09,54,5.80
2012,10,04,09,55,5.90
2012,10,04,09,56,6.00
2012,10,04,09,57,6.00
2012,10,04,09,58,6.10
2012,10,04,09,59,6.10
2012,10,04,10,00,6.10
2012,10,04,10,01,6.10
2012,10,04,10,02,6.10
2012,10,04,10,03,6.20
2012,10,04,10,04,6.20
2012,10,04,10,05,6.30
2012,10,04,10,06,6.30
2012,10,04,10,07,6.40
2012,10,04,10,08,6.50
2012,10,04,10,09,6.50
2012,10,04,10,10,6.60
2012,10,04,10,11,6.60
2012,10,04,10,12,6.60
2012,10,04,10,13,6.70
2012,10,04,10,14,6.70
2012,10,04,10,15,6.80
2012,10,04,10,16,6.80
2012,10,04,10,17,6.80
2012,10,04,10,18,6.80
2012,10,04,10,19,6.80
2012,10,04,10,20,6.80
2012,10,04,10,21,6.80
2012,10,04,10,22,6.80
2012,10,04,10,23,6.80
2012,10,04,10,24,6.80
2012,10,04,10,25,6.90
2012,10,04,10,26,6.90
2012,10,04,10,27,7.00
2012,10,04,10,28,7.00
2012,10,04,10,29,7.10
2012,10,04,10,30,7.10
2012,10,04,10,31,7.20
2012,10,04,10,32,7.20
2012,10,04,10,33,7.20
2012,10,04,10,34,7.20
2012,10,04,10,35,7.30
2012,10,04,10,36,7.40
2012,10,04,10,37,7.40
2012,10,04,10,38,7.50
2012,10,04,10,39,7.60
2012,10,04,10,40,7.70
2012,10,04,10,41,7.70
2012,10,04,10,42,7.70
2012,10,04,10,43,7.70
2012,10,04,10,44,7.80
2012,10,04,10,45,7.80
2012,10,04,10,46,7.80
2012,10,04,10,47,7.90
2012,10,04,10,48,8.00
2012,10,04,10,49,8.00
2012,10,04,10,50,8.00
2012,10,04,10,51,8.10
2012,10,04,10,52,8.10
2012,10,04,10,53,8.10
2012,10,04,10,54,8.20
2012,10,04,10,55,8.30
2012,10,04,10,56,8.30
2012,10,04,10,57,8.40
2012,10,04,10,58,8.40
2012,10,04,10,59,8.50
2012,10,04,11,00,8.60
2012,10,04,11,01,8.60
2012,10,04,11,02,8.70
2012,10,04,11,03,8.70
2012,10,04,11,04,8.70
2012,10,04,11,05,8.80
2012,10,04,11,06,8.80
2012,10,04,11,07,8.80
2012,10,04,11,08,8.90
2012,10,04,11,09,9.00
2012,10,04,11,10,9.00
2012,10,04,11,11,9.10
2012,10,04,11,12,9.10
2012,10,04,11,13,9.20
2012,10,04,11,14,9.30
2012,10,04,11,15,9.30
2012,10,04,11,16,9.40
2012,10,04,11,17,9.50
2012,10,04,11,18,9.60
2012,10,04,11,19,9.70
2012,10,04,11,20,9.80
2012,10,04,11,21,9.80
2012,10,04,11,22,9.90
2012,10,04,11,23,10.00
2012,10,04,11,24,10.10
2012,10,04,11,25,10.20
2012,10,04,11,26,10.30
2012,10,04,11,27,10.40
2012,10,04,11,28,10.40
2012,10,04,11,29,10.40
2012,10,04,11,30,10.40
2012,10,04,11,31,10.50
2012,10,04,11,32,10.50
2012,10,04,11,33,10.50
2012,10,04,11,34,10.60
2012,10,04,11,35,10.60
2012,10,04,11,36,10.70
2012,10,04,11,37,10.70
2012,10,04,11,38,10.70
2012,10,04,11,39,10.80
2012,10,04,11,40,10.80
2012,10,04,11,41,10.80
2012,10,04,11,42,10.90
2012,10,04,11,43,11.00
2012,10,04,11,44,11.10
2012,10,04,11,45,11.20
2012,10,04,11,46,11.30
2012,10,04,11,47,11.30
2012,10,04,11,48,11.40
2012,10,04,11,49,11.50
2012,10,04,11,50,11.60
2012,10,04,11,51,11.70
2012,10,04,11,52,11.70
2012,10,04,11,53,11.80
2012,10,04,11,54,11.80
2012,10,04,11,55,11.80
2012,10,04,11,56,11.90
2012,10,04,11,57,12.00
2012,10,04,11,58,12.00
2012,10,04,11,59,12.10
2012,10,04,12,00,12.10
2012,10,04,12,01,12.20
2012,10,04,12,02,12.20
2012,10,04,12,03,12.30
2012,10,04,12,04,12.30
2012,10,04,12,05,12.40
2012,10,04,12,06,12.50
2012,10,04,12,07,12.60
2012,10,04,12,08,12.70
2012,10,04,12,09,12.80
2012,10,04,12,10,12.90
2012,10,04,12,11,12.90
2012,10,04,12,12,12.90
2012,10,04,12,13,12.90
2012,10,04,12,14,12.90
2012,10,04,12,15,12.90
2012,10,04,12,16,13.00
2012,10,04,12,17,13.00
2012,10,04,12,18,13.10
2012,10,04,12,19,13.10
2012,10,04,12,20,13.20
2012,10,04,12,21,13.30
2012,10,04,12,22,13.40
2012,10,04,12,23,13.50
2012,10,04,12,24,13.60
2012,10,04,12,25,13.60
2012,10,04,12,26,13.70
2012,10,04,12,27,13.70
2012,10,04,12,28,13.70
2012,10,04,12,29,13.80
2012,10,04,12,30,13.80
2012,10,04,12,31,13.90
2012,10,04,12,32,13.90
2012,10,04,12,33,13.90
2012,10,04,12,34,13.80
2012,10,04,12,35,13.80
2012,10,04,12,36,13.80
2012,10,04,12,37,13.80
2012,10,04,12,38,13.80
2012,10,04,12,39,13.80
2012,10,04,12,40,13.90
2012,10,04,12,41,13.90
2012,10,04,12,42,14.00
2012,10,04,12,43,14.10
2012,10,04,12,44,14.10
2012,10,04,12,45,14.10
2012,10,04,12,46,14.20
2012,10,04,12,47,14.20
2012,10,04,12,48,14.20
2012,10,04,12,49,14.20
2012,10,04,12,50,14.20
2012,10,04,12,51,14.30
2012,10,04,12,52,14.30
2012,10,04,12,53,14.40
2012,10,04,12,54,14.50
2012,10,04,12,55,14.50
2012,10,04,12,56,14.60
2012,10,04,12,57,14.70
2012,10,04,12,58,14.80
2012,10,04,12,59,14.80
2012,10,04,13,00,14.80
2012,10,04,13,01,14.90
2012,10,04,13,02,14.90
2012,10,04,13,03,15.00
2012,10,04,13,04,15.00
2012,10,04,13,05,15.00
2012,10,04,13,06,15.10
2012,10,04,13,07,15.10
2012,10,04,13,08,15.20
2012,10,04,13,09,15.20
2012,10,04,13,10,15.30
2012,10,04,13,11,15.30
2012,10,04,13,12,15.30
2012,10,04,13,13,15.30
2012,10,04,13,14,15.30
2012,10,04,13,15,15.30
2012,10,04,13,16,15.30
2012,10,04,13,17,15.30
2012,10,04,13,18,15.30
2012,10,04,13,19,15.30
2012,10,04,13,20,15.30
2012,10,04,13,21,15.30
2012,10,04,13,22,15.30
2012,10,04,13,23,15.30
2012,10,04,13,24,15.40
2012,10,04,13,25,15.40
2012,10,04,13,26,15.40
2012,10,04,13,27,15.50
2012,10,04,13,28,15.50
2012,10,04,13,29,15.60
2012,10,04,13,30,15.60
2012,10,04,13,31,15.70
2012,10,04,13,32,15.70
2012,10,04,13,33,15.80
2012,10,04,13,34,15.80
2012,10,04,13,35,15.80
2012,10,04,13,36,15.80
2012,10,04,13,37,15.90
2012,10,04,13,38,15.90
2012,10,04,13,39,15.90
2012,10,04,13,40,15.90
2012,10,04,13,41,16.00
2012,10,04,13,42,16.00
2012,10,04,13,43,16.10
2012,10,04,13,44,16.10
2012,10,04,13,45,16.20
2012,10,04,13,46,16.30
2012,10,04,13,47,16.40
2012,10,04,13,48,16.40
2012,10,04,13,49,16.50
2012,10,04,13,50,16.60
2012,10,04,13,51,16.70
2012,10,04,13,52,16.80
2012,10,04,13,53,16.90
2012,10,04,13,54,17.00
2012,10,04,13,55,17.10
2012,10,04,13,56,17.10
2012,10,04,13,57,17.10
2012,10,04,13,58,17.20
2012,10,04,13,59,17.20
2012,10,04,14,00,17.20
2012,10,04,14,01,17.20
2012,10,04,14,02,17.20
2012,10,04,14,03,17.30
2012,10,04,14,04,17.30
2012,10,04,14,05,17.40
2012,10,04,14,06,17.40
2012,10,04,14,07,17.50
2012,10,04,14,08,17.60
2012,10,04,14,09,17.60
2012,10,04,14,10,17.60
2012,10,04,14,11,17.70
2012,10,04,14,12,17.80
2012,10,04,14,13,17.90
2012,10,04,14,14,17.90
2012,10,04,14,15,17.90
2012,10,04,14,16,17.90
2012,10,04,14,17,17.90
2012,10,04,14,18,17.90
2012,10,04,14,19,17.90
2012,10,04,14,20,17.90
2012,10,04,14,21,18.00
2012,10,04,14,22,18.00
2012,10,04,14,23,18.10
2012,10,04,14,24,18.20
2012,10,04,14,25,18.20
2012,10,04,14,26,18.20
2012,10,04,14,27,18.20
2012,10,04,14,28,18.20
2012,10,04,14,29,18.20
2012,10,04,14,30,18.20
2012,10,04,14,31,18.20
2012,10,04,14,32,18.20
2012,10,04,14,33,18.20
2012,10,04,14,34,18.30
2012,10,04,14,35,18.30
2012,10,04,14,36,18.40
2012,10,04,14,37,18.40
2012,10,04,14,38,18.50
2012,10,04,14,39,18.60
2012,10,04,14,40,18.60
2012,10,04,14,41,18.60
2012,10,04,14,42,18.60
2012,10,04,14,43,18.50
2012,10,04,14,44,18.50
2012,10,04,14,45,18.50
2012,10,04,14,46,18.50
2012,10,04,14,47,18.60
2012,10,04,14,48,18.70
2012,10,04,14,49,18.70
2012,10,04,14,50,18.80
2012,10,04,14,51,18.80
2012,10,04,14,52,18.90
2012,10,04,14,53,18.90
2012,10,04,14,54,18.90
2012,10,04,14,55,18.90
2012,10,04,14,56,18.90
2012,10,04,14,57,18.90
2012,10,04,14,58,18.80
2012,10,04,14,59,18.80
2012,10,04,15,00,18.80
2012,10,04,15,01,18.80
2012,10,04,15,02,18.80
2012,10,04,15,03,18.90
2012,10,04,15,04,18.90
2012,10,04,15,05,18.90
2012,10,04,15,06,18.90
2012,10,04,15,07,18.90
2012,10,04,15,08,18.90
2012,10,04,15,09,18.90
2012,10,04,15,10,18.90
2012,10,04,15,11,18.80
2012,10,04,15,12,18.80
2012,10,04,15,13,18.80
2012,10,04,15,14,18.80
2012,10,04,15,15,18.80
2012,10,04,15,16,18.80
2012,10,04,15,17,18.90
2012,10,04,15,18,18.90
2012,10,04,15,19,18.90
2012,10,04,15,20,19.00
2012,10,04,15,21,19.00
2012,10,04,15,22,19.10
2012,10,04,15,23,19.10
2012,10,04,15,24,19.10
2012,10,04,15,25,19.20
2012,10,04,15,26,19.20
2012,10,04,15,27,19.20
2012,10,04,15,28,19.30
2012,10,04,15,29,19.40
2012,10,04,15,30,19.50
2012,10,04,15,31,19.60
2012,10,04,15,32,19.60
2012,10,04,15,33,19.70
2012,10,04,15,34,19.60
2012,10,04,15,35,19.60
2012,10,04,15,36,19.50
2012,10,04,15,37,19.40
2012,10,04,15,38,19.30
2012,10,04,15,39,19.30
2012,10,04,15,40,19.30
2012,10,04,15,41,19.30
2012,10,04,15,42,19.30
2012,10,04,15,43,19.40
2012,10,04,15,44,19.50
2012,10,04,15,45,19.60
2012,10,04,15,46,19.70
2012,10,04,15,47,19.80
2012,10,04,15,48,19.80
2012,10,04,15,49,19.90
2012,10,04,15,50,19.80
2012,10,04,15,51,19.90
2012,10,04,15,52,19.90
2012,10,04,15,53,20.00
2012,10,04,15,54,20.00
2012,10,04,15,55,20.00
2012,10,04,15,56,20.10
2012,10,04,15,57,20.10
2012,10,04,15,58,20.10
2012,10,04,15,59,20.20
2012,10,04,16,00,20.20
2012,10,04,16,01,20.30
2012,10,04,16,02,20.30
2012,10,04,16,03,20.40
2012,10,04,16,04,20.30
2012,10,04,16,05,20.40
2012,10,04,16,06,20.40
2012,10,04,16,07,20.50
2012,10,04,16,08,20.50
2012,10,04,16,09,20.50
2012,10,04,16,10,20.50
2012,10,04,16,11,20.60
2012,10,04,16,12,20.60
2012,10,04,16,13,20.60
2012,10,04,16,14,20.70
2012,10,04,16,15,20.70
2012,10,04,16,16,20.70
2012,10,04,16,17,20.70
2012,10,04,16,18,20.70
2012,10,04,16,19,20.70
2012,10,04,16,20,20.80
2012,10,04,16,21,20.80
2012,10,04,16,22,20.80
2012,10,04,16,23,20.80
2012,10,04,16,24,20.70
2012,10,04,16,25,20.70
2012,10,04,16,26,20.70
2012,10,04,16,27,20.80
2012,10,04,16,28,20.80
2012,10,04,16,29,20.90
2012,10,04,16,30,21.00
2012,10,04,16,31,21.00
2012,10,04,16,32,21.00
2012,10,04,16,33,21.00
2012,10,04,16,34,20.90
2012,10,04,16,35,20.80
2012,10,04,16,36,20.70
2012,10,04,16,37,20.60
2012,10,04,16,38,20.50
2012,10,04,16,39,20.50
2012,10,04,16,40,20.50
2012,10,04,16,41,20.40
2012,10,04,16,42,20.40
2012,10,04,16,43,20.40
2012,10,04,16,44,20.30
2012,10,04,16,45,20.30
2012,10,04,16,46,20.20
2012,10,04,16,47,20.10
2012,10,04,16,48,20.00
2012,10,04,16,49,20.00
2012,10,04,16,50,19.90
2012,10,04,16,51,19.80
2012,10,04,16,52,19.80
2012,10,04,16,53,19.80
2012,10,04,16,54,19.80
2012,10,04,16,55,19.80
2012,10,04,16,56,19.90
2012,10,04,16,57,19.90
2012,10,04,16,58,19.90
2012,10,04,16,59,20.00
2012,10,04,17,00,20.00
2012,10,04,17,01,20.00
2012,10,04,17,02,20.00
2012,10,04,17,03,20.00
2012,10,04,17,04,20.00
2012,10,04,17,05,20.00
2012,10,04,17,06,19.90
2012,10,04,17,07,19.80
2012,10,04,17,08,19.70
2012,10,04,17,09,19.50
2012,10,04,17,10,19.40
2012,10,04,17,11,19.20
2012,10,04,17,12,19.10
2012,10,04,17,13,19.00
2012,10,04,17,14,18.90
2012,10,04,17,15,18.80
2012,10,04,17,16,18.70
2012,10,04,17,17,18.60
2012,10,04,17,18,18.40
2012,10,04,17,19,18.30
2012,10,04,17,20,18.30
2012,10,04,17,21,18.20
2012,10,04,17,22,18.10
2012,10,04,17,23,18.00
2012,10,04,17,24,17.90
2012,10,04,17,25,17.80
2012,10,04,17,26,17.70
2012,10,04,17,27,17.60
2012,10,04,17,28,17.50
2012,10,04,17,29,17.50
2012,10,04,17,30,17.40
2012,10,04,17,31,17.20
2012,10,04,17,32,17.10
2012,10,04,17,33,17.00
2012,10,04,17,34,16.80
2012,10,04,17,35,16.70
2012,10,04,17,36,16.60
2012,10,04,17,37,16.40
2012,10,04,17,38,16.30
2012,10,04,17,39,16.20
2012,10,04,17,40,16.00
2012,10,04,17,41,15.90
2012,10,04,17,42,15.80
2012,10,04,17,43,15.70
2012,10,04,17,44,15.60
2012,10,04,17,45,15.50
2012,10,04,17,46,15.40
2012,10,04,17,47,15.30
2012,10,04,17,48,15.30